Theta_e
316 317 317 316 317 316 315 314 312 312 312 311 312 313 314 315 315 318 324 320 326 325 325 336 334 336 336 333 335 351 357 360 361 357 358 353 354 348 350 359 357 355 356 353 353
315 316 316 315 316 315 314 313 312 312 311 311 312 313 314 315 318 325 319 321 327 328 324 328 327 327 331 332 339 348 356 356 356 355 354 354 349 347 351 360 359 358 354 355 356
315 315 315 314 314 314 313 313 312 311 311 312 312 313 314 315 326 325 326 319 325 324 322 324 324 325 327 329 347 350 354 352 353 354 353 354 353 350 348 353 359 359 356 356 358
314 314 314 313 313 312 313 313 312 311 311 312 313 313 315 319 325 327 327 322 321 323 319 322 324 329 330 331 351 353 347 349 354 354 353 354 350 349 352 352 351 354 352 354 355
312 311 312 312 312 312 312 312 311 311 312 312 313 314 317 325 323 321 324 325 323 321 322 323 325 327 331 332 339 353 351 350 352 353 353 352 353 354 350 356 352 351 353 350 354
310 311 311 312 312 312 313 312 311 311 312 313 314 314 326 321 320 322 321 322 322 320 322 322 325 328 327 332 332 343 351 352 348 352 352 353 353 349 351 352 351 351 352 350 350
310 310 311 312 312 313 312 311 311 312 313 314 314 318 324 317 323 323 322 328 327 324 324 324 324 325 326 330 331 333 340 344 345 348 353 350 353 352 348 349 355 355 351 351 349
310 310 311 312 312 312 311 311 312 313 314 315 315 323 319 316 319 321 323 323 324 324 326 327 328 326 326 327 331 334 335 337 337 344 351 346 350 354 349 353 356 356 354 352 351
309 310 311 312 312 311 311 312 314 315 316 315 320 321 322 323 324 322 323 322 323 323 324 326 327 326 326 328 330 332 335 336 343 345 348 345 344 352 347 353 357 357 355 353 352
310 311 312 312 312 311 312 314 316 320 323 321 324 319 320 322 323 323 323 323 320 320 321 327 324 326 325 327 333 334 336 340 343 343 347 345 344 352 348 354 356 349 354 354 354
310 311 312 312 311 311 314 318 319 322 321 319 319 321 320 323 324 324 323 321 319 319 320 320 327 329 329 329 332 332 334 335 338 343 346 345 344 351 351 356 356 343 343 345 353
310 311 312 312 311 312 314 317 325 323 322 321 324 322 322 323 325 321 320 317 318 318 319 318 321 324 328 329 330 330 331 332 338 343 342 342 341 352 353 354 353 344 343 344 352
309 310 311 312 314 319 318 321 325 324 321 322 323 325 326 325 325 319 319 317 319 319 319 318 319 321 324 326 327 327 327 328 327 331 339 340 340 338 348 349 351 346 343 343 353
308 309 310 313 318 319 321 323 324 323 321 323 323 322 325 326 322 320 320 320 319 319 318 317 318 320 321 321 324 323 326 324 324 327 337 336 337 334 339 346 349 347 347 352 354
308 309 310 316 317 317 324 324 324 322 328 327 321 325 323 322 321 322 320 318 318 319 317 318 320 319 320 321 320 320 321 320 323 326 334 335 334 332 340 341 344 347 347 350 354
308 309 311 319 319 323 324 324 323 322 322 326 323 324 320 321 321 321 321 319 318 318 318 318 318 319 318 320 319 321 321 318 319 327 329 332 334 336 340 339 340 342 343 348 355
308 312 312 313 322 324 324 320 321 327 325 324 324 321 320 321 321 322 321 319 318 319 318 317 318 318 319 320 319 321 315 316 318 319 326 327 333 333 339 340 340 349 351 355 356
313 315 318 320 320 323 324 321 331 329 328 324 323 321 322 320 321 321 320 317 317 317 315 317 318 318 320 319 319 318 315 315 319 323 324 327 337 341 340 338 338 338 340 356 357
317 323 323 324 321 321 319 325 326 327 327 323 322 321 320 321 320 321 317 317 317 316 317 316 318 321 321 321 318 319 319 315 316 319 317 319 333 338 340 339 340 339 338 357 358
320 321 325 327 325 322 321 326 326 327 326 321 322 320 320 321 324 320 319 318 319 317 315 317 317 319 320 322 320 318 318 318 312 319 320 320 337 336 336 337 337 338 336 348 356
323 325 329 326 323 318 324 323 325 325 325 321 321 321 320 321 322 323 325 321 320 320 315 315 316 321 320 320 320 318 318 316 313 314 316 318 320 330 335 335 337 337 338 336 339
321 329 329 325 321 318 322 324 324 326 326 325 323 322 321 319 320 322 326 325 330 325 320 315 313 316 319 319 320 317 317 314 314 316 315 315 319 322 333 335 335 337 338 338 336
321 326 325 324 323 321 321 325 326 329 326 326 326 325 325 323 322 322 324 328 334 337 337 325 319 321 321 319 319 322 319 316 312 311 315 316 318 326 332 333 334 336 335 337 339
321 331 324 321 320 326 325 323 326 327 328 328 328 326 325 325 322 325 326 328 337 338 350 326 319 321 323 323 320 324 321 320 314 314 316 314 318 332 335 336 338 338 337 337 338
320 327 318 321 319 320 322 325 326 325 324 324 328 328 327 327 325 325 325 329 336 338 334 328 334 333 328 329 329 331 333 333 319 316 318 319 316 319 331 337 334 337 336 336 338
318 317 313 316 318 319 318 322 324 325 324 325 325 324 325 329 327 330 331 331 339 336 334 329 333 332 331 331 333 333 331 329 322 321 320 319 317 319 325 332 332 331 337 337 341
319 318 313 315 317 321 321 321 323 323 323 324 323 322 322 325 321 321 327 328 331 338 334 333 330 330 333 331 332 332 330 333 330 327 320 323 324 328 333 333 330 343 347 346 343
Wind_Speed
17 16 17 17 17 16 16 15 14 13 14 15 16 17 18 19 19 9 6 8 3 9 5 3 7 10 6 5 7 4 3 3 2 0 5 5 10 5 7 9 0 6 11 22 41
17 17 17 17 17 16 16 15 14 14 15 16 16 17 18 20 16 11 15 11 7 8 8 10 4 2 2 3 3 3 3 8 5 1 9 8 10 5 6 8 7 12 13 33 39
17 18 18 18 18 17 16 15 15 16 16 15 16 16 17 15 5 7 5 19 14 11 11 6 6 1 4 6 7 5 4 2 5 8 12 10 8 3 4 5 2 17 17 24 31
18 18 18 18 18 17 16 16 16 17 16 15 15 16 14 2 3 3 4 14 17 11 9 2 2 1 2 6 2 3 6 12 8 16 11 7 5 2 10 10 9 8 9 20 21
18 19 19 19 18 17 17 16 17 17 15 14 13 13 2 2 9 6 3 10 13 10 9 2 2 1 2 4 4 6 5 15 17 7 17 18 14 7 4 12 8 8 8 10 19
19 19 19 19 18 18 17 18 17 16 15 13 11 7 2 3 5 7 7 10 9 12 6 6 6 2 7 5 4 3 9 10 5 24 19 14 5 3 8 1 4 13 10 6 14
19 20 19 19 18 18 18 17 17 16 13 10 7 3 1 13 5 6 5 7 9 14 5 12 12 3 6 11 4 5 4 7 3 14 8 14 3 4 4 6 8 16 9 13 10
21 20 20 20 19 19 20 18 17 14 9 6 3 2 7 10 14 13 12 16 16 17 19 21 19 5 4 6 8 5 4 1 6 7 16 11 6 7 9 12 18 15 15 14 14
21 20 20 19 19 21 22 20 15 7 4 2 2 2 10 12 4 14 12 7 12 14 15 17 4 4 7 4 6 5 3 5 5 6 8 9 5 8 7 17 15 11 13 11 13
21 20 19 18 18 22 23 17 9 5 1 1 3 4 6 3 5 12 16 13 4 4 7 2 5 1 5 4 5 6 5 8 4 4 7 7 7 13 13 15 16 10 7 9 8
21 20 19 18 18 22 23 4 4 4 0 7 5 5 8 8 12 9 18 10 1 4 1 5 3 5 11 9 8 7 8 8 17 7 5 9 8 21 18 11 11 6 11 9 10
21 19 18 18 18 17 9 1 4 4 8 11 14 11 23 9 6 8 12 6 5 5 1 5 5 11 10 10 11 13 12 14 10 12 7 6 11 19 21 22 20 17 20 12 10
19 19 19 19 15 4 7 9 8 15 2 8 8 7 7 10 7 9 7 7 4 5 5 6 9 5 7 13 11 14 5 8 6 8 2 5 6 6 18 12 17 20 14 11 14
19 18 20 20 1 9 5 17 12 5 4 7 4 7 5 6 6 13 10 7 3 9 6 7 10 9 9 8 4 9 20 13 5 4 3 3 5 6 4 17 23 22 13 9 14
19 19 19 11 9 3 10 16 17 3 4 3 2 5 7 9 2 6 7 4 8 8 6 9 5 7 6 11 5 11 11 7 2 4 2 4 4 7 2 3 10 15 20 11 14
19 19 17 6 8 5 16 16 6 5 3 2 4 6 6 4 5 6 3 3 7 5 3 11 5 4 9 10 6 7 6 6 6 3 3 6 5 7 3 6 5 12 16 20 16
20 19 15 8 4 8 15 4 5 3 6 3 3 5 5 5 4 5 4 4 6 3 4 7 9 6 6 7 7 4 6 5 6 5 7 6 3 9 5 8 5 9 16 16 20
19 13 9 13 4 6 7 5 3 5 5 5 4 3 6 7 7 5 2 5 5 5 3 3 9 7 5 8 9 7 8 6 7 3 7 1 2 6 10 8 7 9 7 15 19
11 4 5 2 11 6 5 4 6 4 6 5 9 4 4 5 4 3 9 8 9 10 9 6 7 2 2 6 9 10 3 7 6 3 3 4 7 5 1 3 6 10 4 15 20
8 5 5 4 10 6 5 4 4 4 8 6 5 3 4 4 3 4 4 6 9 12 6 8 5 11 11 1 4 8 5 1 3 2 4 5 4 6 7 10 9 10 8 9 16
5 3 1 12 13 5 3 6 6 8 5 3 3 3 2 3 4 3 5 9 4 8 10 8 6 19 3 5 7 3 1 3 5 5 5 3 6 7 11 9 12 2 7 10 16
4 2 15 23 3 0 2 5 4 13 13 6 2 3 3 3 4 2 3 5 7 4 4 9 7 7 12 8 6 6 9 5 5 7 4 5 8 6 11 8 6 7 3 8 8
2 3 19 13 0 2 5 8 6 5 5 4 1 2 1 3 4 1 7 4 7 5 3 2 1 2 9 8 5 2 3 4 2 4 6 5 7 4 5 8 8 12 8 7 8
1 3 4 3 1 2 5 8 7 7 6 3 3 2 2 4 3 4 6 5 4 4 6 5 3 6 6 6 2 5 7 3 5 3 5 6 7 5 2 6 5 5 7 11 12
1 2 1 2 4 5 3 5 10 7 3 3 4 4 5 4 5 6 5 7 5 7 5 5 2 1 5 2 4 4 5 9 3 8 5 9 9 9 9 7 7 4 10 13 7
2 3 4 3 4 6 5 5 6 16 2 5 3 5 7 4 3 5 4 4 4 5 4 5 2 4 7 5 7 6 12 8 5 5 5 6 8 8 11 8 8 9 18 12 11
7 5 4 5 5 3 2 6 11 8 6 6 3 3 6 4 5 7 5 3 4 1 2 2 2 3 5 4 8 7 3 3 5 3 5 6 6 10 6 9 10 7 12 7 5
Wind_Direction
354 352 350 348 348 345 347 348 350 348 345 341 340 337 334 325 321 302 253 232 244 202 224 157 231 252 258 214 217 141 73 296 257 35 96 49 92 20 359 94 333 185 151 147 155
351 347 346 345 343 343 345 347 346 343 341 338 337 336 333 331 327 263 250 223 230 204 194 196 253 285 295 248 196 113 163 219 199 10 153 124 111 104 61 54 66 103 110 130 139
346 344 342 341 340 343 343 343 342 339 339 337 337 336 333 331 337 254 301 218 215 225 241 219 250 204 228 203 185 176 200 115 244 112 132 110 106 65 114 35 184 149 139 146 145
342 342 340 340 342 341 339 336 335 335 337 334 336 335 334 340 215 312 354 198 208 228 250 247 106 218 279 316 164 207 244 258 261 116 115 92 108 125 192 189 172 168 158 151 153
342 343 342 340 339 336 332 330 330 332 333 331 335 339 15 16 249 255 273 173 196 211 235 194 314 208 231 281 253 252 232 244 245 145 135 169 167 169 249 103 155 180 218 167 171
343 339 337 335 334 331 328 326 328 328 326 327 333 345 21 269 272 249 191 182 201 205 234 182 230 186 284 279 328 269 262 243 193 139 157 158 139 88 267 161 238 159 203 218 182
338 337 335 333 330 326 324 322 322 322 320 323 330 24 313 236 148 137 267 234 218 215 219 240 241 128 315 308 309 318 228 250 302 135 157 109 170 226 222 161 119 163 186 210 177
338 336 334 331 328 325 320 319 316 316 316 320 344 86 249 266 289 269 265 257 268 254 241 263 262 226 198 273 347 332 3 2 267 186 175 155 226 190 157 188 191 173 183 202 210
334 334 332 330 328 324 319 320 312 305 307 301 22 125 268 304 266 245 243 250 265 282 274 260 189 219 347 23 355 8 256 249 279 212 132 230 242 175 175 200 193 198 193 194 210
334 334 333 331 330 326 324 321 311 313 21 347 265 326 273 265 229 225 225 236 250 337 346 333 49 67 342 72 249 282 338 316 247 241 180 231 245 173 194 202 202 203 185 188 204
337 336 334 332 332 329 333 352 11 18 99 206 208 255 288 322 318 238 226 214 1 70 196 293 114 213 248 247 251 257 271 270 281 255 169 222 240 184 194 207 221 212 233 206 213
339 338 334 331 327 320 324 2 230 289 298 232 242 243 265 287 307 300 179 149 142 221 94 358 226 231 236 258 265 275 276 279 260 261 162 231 246 185 182 208 195 205 231 219 200
343 339 333 329 322 338 306 264 325 325 310 286 205 215 227 144 222 255 138 161 155 203 237 185 244 250 224 266 277 281 243 276 249 297 254 120 319 145 209 223 199 224 221 224 192
341 338 338 334 14 332 265 343 351 338 31 278 213 255 177 157 288 223 187 147 168 201 231 235 259 242 262 265 224 266 277 270 313 13 221 154 260 309 103 208 198 209 215 210 192
338 335 338 333 308 269 329 326 336 60 16 141 184 182 157 161 244 335 140 97 200 208 119 242 281 273 249 244 184 243 279 251 278 335 58 307 88 268 120 161 198 196 222 198 185
332 329 328 308 303 316 338 331 349 46 283 259 143 168 107 232 259 330 152 129 197 201 195 238 265 196 232 268 201 255 279 10 37 60 348 248 125 283 229 216 139 223 207 189 181
326 319 302 252 234 327 341 21 53 121 313 337 215 163 175 193 258 192 239 193 180 133 296 309 276 271 212 289 312 59 53 338 347 356 238 323 63 240 231 215 218 170 191 183 180
326 305 281 253 245 318 4 57 103 241 267 281 263 119 180 171 239 205 174 221 245 119 111 171 320 221 245 187 228 256 156 160 221 224 277 11 237 249 223 199 210 159 180 188 189
338 324 274 279 202 229 69 69 211 246 295 356 358 96 346 20 40 280 196 211 214 172 174 163 260 274 210 258 141 267 219 188 125 142 46 263 291 330 314 216 217 205 180 188 199
342 327 258 147 174 123 73 244 255 252 317 11 49 80 358 309 39 26 218 216 224 196 165 225 267 260 271 161 267 177 180 325 4 223 283 294 290 237 221 241 200 182 186 201 204
358 26 251 157 148 53 152 236 281 286 295 58 303 306 287 320 0 353 254 272 239 242 177 180 150 266 74 191 231 346 245 91 126 140 176 264 264 228 253 200 197 136 121 237 208
355 23 169 163 54 176 185 212 259 292 295 273 223 265 248 276 277 314 291 257 315 266 162 217 170 219 249 261 215 182 211 160 134 268 222 173 261 253 257 209 253 202 240 82 181
13 264 176 176 139 278 285 283 247 292 265 167 266 161 78 310 322 266 317 303 44 60 84 333 299 65 342 342 21 47 193 196 99 88 227 182 266 286 257 333 223 195 115 53 74
48 18 324 41 154 314 323 294 307 324 343 26 255 333 355 324 191 280 317 339 33 13 4 102 68 144 180 214 223 293 308 251 160 136 228 216 254 264 331 150 118 299 139 140 233
101 293 222 308 313 305 234 265 294 314 300 31 327 269 263 267 298 312 329 322 11 2 39 81 47 329 209 219 64 320 330 325 232 245 175 260 209 223 206 188 247 194 152 181 146
65 37 347 279 293 342 12 350 327 343 238 319 62 3 25 46 41 304 353 11 261 346 52 358 314 3 315 34 49 316 306 297 293 282 269 267 286 236 235 168 184 191 203 205 210
356 350 103 286 327 16 260 326 327 357 312 339 17 36 347 269 335 282 239 232 212 233 151 92 101 41 276 347 356 321 264 352 277 269 303 31 301 333 277 215 188 110 102 87 139